Ocean Highway — H3IE — position and weather

sailwx.info

Track history (hours):
 
Tides and Currents Weather Stations Pressure Air Temp Water Temp Dewpoint Dewpoint Depression Visibility Wind Speed Wind Dir Waves Ship Positions

Ocean Highway

Last reported at 2014-Nov-24 03:33 UTC. Time now 2014-Nov-24 04:06 UTC.
Position N 31°19' E 121°41'.

Length 179.1 m; beam 32.2 m.

Type: Cargo ship. MMSI: 353951000.

Date/timePositionNaut miles runAvg speedWind from/ knotsBaromVisibWave heightAir tempDewpointWater temp
2014-Nov-24 03:33N 31°19' E 121°41'0 0.0
2014-Nov-24 02:30N 31°19' E 121°41'0 0.0
2014-Nov-24 01:33N 31°19' E 121°41'0 0.0
2014-Nov-24 00:33N 31°19' E 121°41'0 0.0
2014-Nov-23 23:33N 31°19' E 121°41'0 0.0
2014-Nov-23 22:33N 31°19' E 121°41'0 0.0
2014-Nov-23 21:33N 31°19' E 121°41'0 0.0
2014-Nov-23 20:33N 31°19' E 121°41'0 0.0
2014-Nov-23 19:33N 31°19' E 121°41'0 0.0
2014-Nov-23 18:33N 31°19' E 121°41'0 0.0
2014-Nov-23 17:33N 31°19' E 121°41'1 1.0
2014-Nov-23 16:33N 31°20' E 121°40'4 4.1
2014-Nov-23 15:33N 31°19' E 121°45'9 9.4
2014-Nov-23 14:33N 31°16' E 121°55'9 9.4
2014-Nov-23 13:33N 31°14' E 122°06'8 8.4
2014-Nov-23 12:33N 31°09' E 122°14'1110.7
2014-Nov-23 11:33N 31°06' E 122°26'8 3.5
2014-Nov-23 09:09N 31°10' E 122°35'0 0.0
2014-Nov-23 08:33N 31°10' E 122°35'0 0.0
2014-Nov-23 07:30N 31°10' E 122°35'0 0.0
2014-Nov-23 05:33N 31°10' E 122°35'0 0.0
2014-Nov-23 01:27N 31°10' E 122°35'0 0.1
2014-Nov-23 00:27N 31°10' E 122°35'0 0.1
2014-Nov-22 23:24N 31°10' E 122°35'0 0.1
2014-Nov-22 22:33N 31°10' E 122°35'0 0.0
2014-Nov-22 21:24N 31°10' E 122°35'0 0.0
2014-Nov-22 18:15N 31°10' E 122°35'0 0.0
2014-Nov-22 14:27N 31°10' E 122°35'0 0.0
2014-Nov-22 09:09N 31°10' E 122°35'0 0.0
2014-Nov-22 07:09N 31°10' E 122°35'0 0.0
2014-Nov-22 06:27N 31°10' E 122°35'0 0.0
2014-Nov-22 05:33N 31°10' E 122°35'0 0.0
2014-Nov-22 02:15N 31°10' E 122°35'0 0.0
2014-Nov-22 01:30N 31°10' E 122°35'0 0.1
2014-Nov-22 00:33N 31°10' E 122°35'0 0.3
2014-Nov-21 23:25N 31°10' E 122°35'4 4.2
2014-Nov-21 22:33N 31°06' E 122°34'3 1.6
2014-Nov-21 20:29N 31°08' E 122°37'0 0.0
2014-Nov-21 08:32N 31°08' E 122°37'0 0.0
2014-Nov-21 05:29N 31°08' E 122°37'0 0.0
2014-Nov-21 04:32N 31°09' E 122°37'0 0.0
2014-Nov-21 03:17N 31°09' E 122°37'0 0.0
2014-Nov-21 00:14N 31°08' E 122°37'0 0.0
2014-Nov-20 22:20N 31°08' E 122°37'0 0.1
2014-Nov-20 17:33N 31°09' E 122°38'  
2014-Nov-15 11:16N 35°03' E 139°41'1014.5
2014-Nov-15 10:34N 35°13' E 139°46'1312.6
2014-Nov-15 09:33N 35°25' E 139°43'3 2.8
2014-Nov-15 08:33N 35°27' E 139°41'0 0.0
2014-Nov-15 07:33N 35°27' E 139°41'0 0.0
2014-Nov-15 06:33N 35°27' E 139°41'0 0.0
2014-Nov-15 05:30N 35°27' E 139°41'0 0.0
2014-Nov-15 04:33N 35°27' E 139°41'2 2.5
2014-Nov-15 03:34N 35°26' E 139°43'0 0.4
2014-Nov-15 02:31N 35°26' E 139°44'0 0.1
2014-Nov-15 01:33N 35°26' E 139°44'8 7.7
2014-Nov-15 00:33N 35°18' E 139°45'1110.8
2014-Nov-14 23:33N 35°07' E 139°46'23 2.5
2014-Nov-14 14:27N 34°56' E 140°10'  
Track history (hours):
 
Tides and Currents Weather Stations Pressure Air Temp Water Temp Dewpoint Dewpoint Depression Visibility Wind Speed Wind Dir Waves Ship Positions

Ocean Highway

Last reported at 2014-Nov-24 03:33 UTC. Time now 2014-Nov-24 04:06 UTC.
Position N 31°19' E 121°41'.

Length 179.1 m; beam 32.2 m.

Type: Cargo ship. MMSI: 353951000.

Date/timePositionNaut miles runAvg speedWind from/ knotsBaromVisibWave heightAir tempDewpointWater temp
2014-Nov-24 03:33N 31°19' E 121°41'0 0.0
2014-Nov-24 02:30N 31°19' E 121°41'0 0.0
2014-Nov-24 01:33N 31°19' E 121°41'0 0.0
2014-Nov-24 00:33N 31°19' E 121°41'0 0.0
2014-Nov-23 23:33N 31°19' E 121°41'0 0.0
2014-Nov-23 22:33N 31°19' E 121°41'0 0.0
2014-Nov-23 21:33N 31°19' E 121°41'0 0.0
2014-Nov-23 20:33N 31°19' E 121°41'0 0.0
2014-Nov-23 19:33N 31°19' E 121°41'0 0.0
2014-Nov-23 18:33N 31°19' E 121°41'0 0.0
2014-Nov-23 17:33N 31°19' E 121°41'1 1.0
2014-Nov-23 16:33N 31°20' E 121°40'4 4.1
2014-Nov-23 15:33N 31°19' E 121°45'9 9.4
2014-Nov-23 14:33N 31°16' E 121°55'9 9.4
2014-Nov-23 13:33N 31°14' E 122°06'8 8.4
2014-Nov-23 12:33N 31°09' E 122°14'1110.7
2014-Nov-23 11:33N 31°06' E 122°26'8 3.5
2014-Nov-23 09:09N 31°10' E 122°35'0 0.0
2014-Nov-23 08:33N 31°10' E 122°35'0 0.0
2014-Nov-23 07:30N 31°10' E 122°35'0 0.0
2014-Nov-23 05:33N 31°10' E 122°35'0 0.0
2014-Nov-23 01:27N 31°10' E 122°35'0 0.1
2014-Nov-23 00:27N 31°10' E 122°35'0 0.1
2014-Nov-22 23:24N 31°10' E 122°35'0 0.1
2014-Nov-22 22:33N 31°10' E 122°35'0 0.0
2014-Nov-22 21:24N 31°10' E 122°35'0 0.0
2014-Nov-22 18:15N 31°10' E 122°35'0 0.0
2014-Nov-22 14:27N 31°10' E 122°35'0 0.0
2014-Nov-22 09:09N 31°10' E 122°35'0 0.0
2014-Nov-22 07:09N 31°10' E 122°35'0 0.0
2014-Nov-22 06:27N 31°10' E 122°35'0 0.0
2014-Nov-22 05:33N 31°10' E 122°35'0 0.0
2014-Nov-22 02:15N 31°10' E 122°35'0 0.0
2014-Nov-22 01:30N 31°10' E 122°35'0 0.1
2014-Nov-22 00:33N 31°10' E 122°35'0 0.3
2014-Nov-21 23:25N 31°10' E 122°35'4 4.2
2014-Nov-21 22:33N 31°06' E 122°34'3 1.6
2014-Nov-21 20:29N 31°08' E 122°37'0 0.0
2014-Nov-21 08:32N 31°08' E 122°37'0 0.0
2014-Nov-21 05:29N 31°08' E 122°37'0 0.0
2014-Nov-21 04:32N 31°09' E 122°37'0 0.0
2014-Nov-21 03:17N 31°09' E 122°37'0 0.0
2014-Nov-21 00:14N 31°08' E 122°37'0 0.0
2014-Nov-20 22:20N 31°08' E 122°37'0 0.1
2014-Nov-20 17:33N 31°09' E 122°38'  
2014-Nov-15 11:16N 35°03' E 139°41'1014.5
2014-Nov-15 10:34N 35°13' E 139°46'1312.6
2014-Nov-15 09:33N 35°25' E 139°43'3 2.8
2014-Nov-15 08:33N 35°27' E 139°41'0 0.0
2014-Nov-15 07:33N 35°27' E 139°41'0 0.0
2014-Nov-15 06:33N 35°27' E 139°41'0 0.0
2014-Nov-15 05:30N 35°27' E 139°41'0 0.0
2014-Nov-15 04:33N 35°27' E 139°41'2 2.5
2014-Nov-15 03:34N 35°26' E 139°43'0 0.4
2014-Nov-15 02:31N 35°26' E 139°44'0 0.1
2014-Nov-15 01:33N 35°26' E 139°44'8 7.7
2014-Nov-15 00:33N 35°18' E 139°45'1110.8
2014-Nov-14 23:33N 35°07' E 139°46'23 2.5
2014-Nov-14 14:27N 34°56' E 140°10'  

Dump ship's entire track history